Regional Weather Roundup
Issued by NWS

Home | Current Version | Previous Version | Text Only | Print | Product List | Glossary On
Versions: 1 2 3 4 5 6 7 8 9 10 11 12 13 14 15 16 17 18 19 20 21 22 23 24 25 26 27 28 29 30 31 32 33 34 35 36 37 38 39 40 41 42 43 44 45 46 47 48 49 50
000
ASUS43 KBIS 310120
RWRND

NORTH DAKOTA REGIONAL WEATHER ROUNDUP
NATIONAL WEATHER SERVICE BISMARCK ND
800 PM CDT WED JUL 30 2014

NOTE: "FAIR" INDICATES FEW OR NO CLOUDS BELOW 12,000 FEET WITH NO
SIGNIFICANT WEATHER AND/OR OBSTRUCTIONS TO VISIBILITY.


NDZ001>003-009>011-017-310200-
NORTHWEST NORTH DAKOTA

CITY           SKY/WX    TMP DP  RH WIND       PRES   REMARKS
WILLISTON      SUNNY     82  44  26 NE8       30.12S
MINOT          SUNNY     76  59  55 N6        30.10S
MINOT AFB      SUNNY     78  53  42 NW6       30.10S
$$

NDZ018>021-031>035-040>046-310200-
SOUTHWEST NORTH DAKOTA

CITY           SKY/WX    TMP DP  RH WIND       PRES   REMARKS
BISMARCK       MOSUNNY   79  56  45 E7        30.10S
DICKINSON      SUNNY     80  50  34 N6        30.12S
GARRISON         N/A     78  59  51 N3        30.11S
HETTINGER ARPT SUNNY     79  53  40 N6        30.15S
$$

NDZ004>008-012>016-024-026-027-054-310200-
NORTHEAST NORTH DAKOTA

CITY           SKY/WX    TMP DP  RH WIND       PRES   REMARKS
GRAND FORKS    PTCLDY    76  59  55 N6        30.03F
GRND FRKS AFB  CLEAR     75  60  60 N3        30.05S
DEVILS LAKE    SUNNY     73  57  56 NW6       30.07S
$$

NDZ022-023-025-028>030-036>039-047>053-310200-
SOUTHEAST NORTH DAKOTA

CITY           SKY/WX    TMP DP  RH WIND       PRES   REMARKS
FARGO          CLEAR     78  55  44 W8        30.04S
JAMESTOWN      SUNNY     75  56  51 N5        30.08S
$$



USA.gov is the U.S. government's official web portal to all federal, state and local government web resources and services.